When you browse on this site, cookies collect data to enhance your experience and personalize the content and advertising you see.
Visit our Privacy Policy to learn more. By continuing to use the site, you agree to this use of cookies and data.
  • In Hungary
  • List of Countries
  • For 7 days
  • Water Temperature
  • Satellite Maps
  • Weather Map
  • News
  • Weather Widgets
  • user-avatar
    Login

    Hourly Weather Bitonto

    Today, 12 December, Wednesday

    Time Temperature Precipitation Wind Pressure Humidity
    00:00 +7°C° 0.3 mm 3 mps 754 mmHg 68%
    01:00 +5°C° 0 mm 3 mps 754 mmHg 70%
    02:00 +5°C° 0.2 mm 3 mps 754 mmHg 71%
    03:00 +5°C° 0.2 mm 3 mps 754 mmHg 71%
    04:00 +5°C° 0.2 mm 3 mps 754 mmHg 72%
    05:00 +5°C° 0.2 mm 3 mps 754 mmHg 71%
    06:00 +5°C° 0.2 mm 2 mps 755 mmHg 71%
    07:00 +5°C° 0 mm 2 mps 755 mmHg 71%
    08:00 +6°C° 0.2 mm 2 mps 755 mmHg 66%
    09:00 +8°C° 0.2 mm 2 mps 755 mmHg 60%
    10:00 +9°C° 0.2 mm 2 mps 755 mmHg 55%
    11:00 +9°C° 0 mm 2 mps 755 mmHg 51%
    12:00 +10°C° 0 mm 2 mps 755 mmHg 48%
    13:00 +12°C° 0 mm 1 mps 755 mmHg 42%
    14:00 +12°C° 0 mm 1 mps 755 mmHg 44%
    15:00 +11°C° 0 mm 1 mps 755 mmHg 46%
    16:00 +11°C° 0 mm 1 mps 755 mmHg 49%
    17:00 +10°C° 0 mm 1 mps 755 mmHg 51%
    18:00 +9°C° 0 mm 2 mps 755 mmHg 54%
    19:00 +8°C° 0 mm 2 mps 755 mmHg 56%
    20:00 +8°C° 0 mm 2 mps 755 mmHg 57%
    21:00 +8°C° 0 mm 2 mps 755 mmHg 58%
    22:00 +8°C° 0 mm 2 mps 754 mmHg 59%
    23:00 +8°C° 0 mm 2 mps 754 mmHg 60%

    Tomorrow, 13 December, Thursday

    Time Temperature Precipitation Wind Pressure Humidity
    00:00 +8°C° 0 mm 2 mps 754 mmHg 61%
    01:00 +8°C° 0 mm 2 mps 754 mmHg 62%
    02:00 +8°C° 0 mm 3 mps 754 mmHg 65%
    03:00 +8°C° 0 mm 3 mps 753 mmHg 68%
    04:00 +8°C° 0 mm 3 mps 753 mmHg 71%
    05:00 +7°C° 0 mm 4 mps 752 mmHg 74%
    06:00 +7°C° 0 mm 4 mps 752 mmHg 77%
    07:00 +7°C° 0 mm 5 mps 752 mmHg 80%
    08:00 +8°C° 0.1 mm 6 mps 752 mmHg 78%
    09:00 +9°C° 0.1 mm 6 mps 751 mmHg 76%
    10:00 +9°C° 0.1 mm 7 mps 751 mmHg 74%
    11:00 +10°C° 0.1 mm 7 mps 751 mmHg 73%
    12:00 +10°C° 0.1 mm 7 mps 750 mmHg 72%
    13:00 +11°C° 0.1 mm 7 mps 750 mmHg 71%
    14:00 +11°C° 0 mm 7 mps 749 mmHg 73%
    15:00 +11°C° 0 mm 7 mps 749 mmHg 75%
    16:00 +11°C° 0 mm 7 mps 749 mmHg 78%
    17:00 +10°C° 0.1 mm 6 mps 749 mmHg 81%
    18:00 +10°C° 0.1 mm 6 mps 749 mmHg 83%
    19:00 +9°C° 0.1 mm 5 mps 749 mmHg 86%
    20:00 +9°C° 0 mm 5 mps 749 mmHg 84%
    21:00 +10°C° 0 mm 4 mps 749 mmHg 82%
    22:00 +10°C° 0 mm 3 mps 749 mmHg 80%
    23:00 +10°C° 0 mm 3 mps 749 mmHg 81%

    Day after tomorrow, 14 December, Friday

    Time Temperature Precipitation Wind Pressure Humidity
    00:00 +10°C° 0 mm 2 mps 749 mmHg 81%
    01:00 +10°C° 0 mm 2 mps 749 mmHg 81%
    02:00 +10°C° 0.4 mm 2 mps 749 mmHg 83%
    03:00 +11°C° 0.4 mm 1 mps 749 mmHg 84%
    04:00 +11°C° 0.4 mm 1 mps 749 mmHg 86%
    05:00 +11°C° 0.3 mm 1 mps 749 mmHg 86%
    06:00 +10°C° 0.3 mm 2 mps 749 mmHg 87%
    07:00 +10°C° 0.3 mm 3 mps 749 mmHg 87%
    08:00 +11°C° 0.2 mm 3 mps 749 mmHg 82%
    09:00 +12°C° 0.2 mm 4 mps 749 mmHg 78%
    10:00 +14°C° 0.2 mm 4 mps 749 mmHg 74%
    11:00 +14°C° 0 mm 3 mps 749 mmHg 69%
    12:00 +16°C° 0 mm 3 mps 748 mmHg 65%
    13:00 +17°C° 0 mm 2 mps 748 mmHg 61%
    14:00 +17°C° 0 mm 2 mps 748 mmHg 64%
    15:00 +16°C° 0 mm 2 mps 748 mmHg 68%
    16:00 +15°C° 0 mm 2 mps 748 mmHg 71%
    17:00 +15°C° 0 mm 2 mps 748 mmHg 74%
    18:00 +14°C° 0 mm 2 mps 748 mmHg 78%
    19:00 +13°C° 0 mm 2 mps 748 mmHg 82%
    20:00 +13°C° 0 mm 2 mps 749 mmHg 84%
    21:00 +13°C° 0 mm 2 mps 749 mmHg 86%
    22:00 +11°C° 0 mm 3 mps 749 mmHg 88%
    23:00 +11°C° 0.1 mm 3 mps 749 mmHg 89%

    15 December, Saturday

    Time Temperature Precipitation Wind Pressure Humidity
    00:00 +11°C° 0.1 mm 3 mps 749 mmHg 90%
    01:00 +11°C° 0.1 mm 3 mps 749 mmHg 91%
    02:00 +11°C° 0.3 mm 3 mps 748 mmHg 91%
    03:00 +11°C° 0.3 mm 4 mps 748 mmHg 90%
    04:00 +11°C° 0.3 mm 4 mps 748 mmHg 89%
    05:00 +11°C° 0.2 mm 4 mps 748 mmHg 88%
    06:00 +10°C° 0.2 mm 5 mps 748 mmHg 88%
    07:00 +10°C° 0.2 mm 5 mps 749 mmHg 87%
    08:00 +10°C° 0.2 mm 5 mps 749 mmHg 86%
    09:00 +10°C° 0.2 mm 6 mps 749 mmHg 85%
    10:00 +11°C° 0.2 mm 6 mps 749 mmHg 84%
    11:00 +10°C° 0.1 mm 7 mps 749 mmHg 81%
    12:00 +10°C° 0.1 mm 7 mps 749 mmHg 78%
    13:00 +10°C° 0.1 mm 7 mps 749 mmHg 75%
    14:00 +10°C° 0.1 mm 7 mps 749 mmHg 76%
    15:00 +10°C° 0.1 mm 7 mps 750 mmHg 78%
    16:00 +9°C° 0.1 mm 7 mps 750 mmHg 79%
    17:00 +9°C° 0.2 mm 7 mps 750 mmHg 79%
    18:00 +9°C° 0.2 mm 7 mps 750 mmHg 79%
    19:00 +8°C° 0.2 mm 7 mps 750 mmHg 79%
    20:00 +7°C° 0.1 mm 8 mps 751 mmHg 78%
    21:00 +7°C° 0.1 mm 8 mps 751 mmHg 76%
    22:00 +7°C° 0.1 mm 9 mps 751 mmHg 74%
    23:00 +6°C° 0 mm 9 mps 751 mmHg 74%

    16 December, Sunday

    Time Temperature Precipitation Wind Pressure Humidity
    00:00 +6°C° 0 mm 9 mps 751 mmHg 74%
    01:00 +5°C° 0 mm 9 mps 751 mmHg 74%
    02:00 +5°C° 0 mm 9 mps 752 mmHg 74%
    03:00 +5°C° 0 mm 9 mps 752 mmHg 73%
    04:00 +5°C° 0 mm 9 mps 752 mmHg 73%
    05:00 +5°C° 0 mm 8 mps 752 mmHg 73%
    06:00 +5°C° 0 mm 8 mps 752 mmHg 73%
    07:00 +5°C° 0 mm 8 mps 752 mmHg 73%
    08:00 +5°C° 0 mm 8 mps 753 mmHg 71%
    09:00 +6°C° 0 mm 8 mps 753 mmHg 70%
    10:00 +7°C° 0 mm 8 mps 754 mmHg 68%
    11:00 +7°C° 0 mm 8 mps 753 mmHg 66%
    12:00 +9°C° 0 mm 8 mps 753 mmHg 64%
    13:00 +9°C° 0 mm 7 mps 753 mmHg 62%
    14:00 +9°C° 0 mm 7 mps 753 mmHg 63%
    15:00 +9°C° 0 mm 6 mps 754 mmHg 63%
    16:00 +8°C° 0 mm 6 mps 754 mmHg 64%
    17:00 +8°C° 0 mm 5 mps 754 mmHg 66%
    18:00 +7°C° 0 mm 5 mps 754 mmHg 68%
    19:00 +7°C° 0 mm 4 mps 755 mmHg 70%
    20:00 +6°C° 0 mm 4 mps 755 mmHg 69%
    21:00 +7°C° 0 mm 3 mps 755 mmHg 68%
    22:00 +7°C° 0 mm 3 mps 755 mmHg 67%
    23:00 +7°C° 0 mm 3 mps 755 mmHg 66%

    17 December, Monday

    Time Temperature Precipitation Wind Pressure Humidity
    00:00 +7°C° 0 mm 2 mps 755 mmHg 64%
    01:00 +7°C° 0 mm 2 mps 755 mmHg 62%
    02:00 +7°C° 0 mm 2 mps 755 mmHg 61%
    03:00 +7°C° 0 mm 2 mps 755 mmHg 60%
    04:00 +7°C° 0 mm 2 mps 755 mmHg 59%
    05:00 +9°C° 0 mm 1 mps 755 mmHg 58%
    06:00 +9°C° 0 mm 1 mps 755 mmHg 57%
    07:00 +9°C° 0 mm 1 mps 755 mmHg 56%
    08:00 +10°C° 0 mm 1 mps 755 mmHg 54%
    09:00 +11°C° 0 mm 1 mps 755 mmHg 51%
    10:00 +11°C° 0 mm 1 mps 755 mmHg 48%
    11:00 +12°C° 0 mm 2 mps 755 mmHg 50%
    12:00 +13°C° 0 mm 2 mps 754 mmHg 51%
    13:00 +12°C° 0 mm 3 mps 754 mmHg 53%
    14:00 +12°C° 0.1 mm 3 mps 753 mmHg 59%
    15:00 +12°C° 0.1 mm 4 mps 753 mmHg 66%
    16:00 +11°C° 0.1 mm 4 mps 753 mmHg 72%
    17:00 +11°C° 0.1 mm 4 mps 753 mmHg 77%
    18:00 +11°C° 0.1 mm 4 mps 752 mmHg 82%
    19:00 +11°C° 0.1 mm 4 mps 752 mmHg 87%
    20:00 +11°C° 0.3 mm 4 mps 752 mmHg 88%
    21:00 +11°C° 0.3 mm 4 mps 752 mmHg 89%
    22:00 +11°C° 0.3 mm 4 mps 752 mmHg 91%
    23:00 +9°C° 0.5 mm 5 mps 751 mmHg 89%
    Show more